DW3835 Weather Reports


Display with metric or nautical units.
time (UTC)temp
F
wind
direction
speed
MPH
gust
MPH
rain 1hr
in
rain 24hr
in
rain mn
in
humidity
%
barometer
mb
20260503021841 56 42 0.0 1.0 0.00 0.00 0.00 81 1009.5
20260503020833 55 122 0.0 0.0 0.00 0.00 0.00 81 1009.6
20260503015811 56 124 0.0 3.0 0.00 0.00 0.00 80 1009.5
20260503014802 56 50 0.0 1.0 0.00 0.00 0.00 80 1009.6
20260503012614 57 82 0.0 3.0 0.00 0.00 0.00 78 1009.7
20260503011557 57 165 0.0 7.0 0.00 0.00 0.00 78 1009.6
20260503010605 58 97 0.0 7.0 0.00 0.00 0.00 78 1009.7
20260503004437 59 65 0.0 5.0 0.00 0.00 0.00 76 1009.7
20260503003416 59 226 0.0 5.0 0.00 0.00 0.00 76 1009.7
20260503002355 59 302 0.0 5.0 0.00 0.00 0.00 76 1009.8
20260503001344 60 159 0.0 4.0 0.00 0.00 0.00 76 1009.9
20260503000354 60 159 0.0 6.0 0.00 0.00 0.00 74 1009.8
20260502235359 60 174 1.0 6.0 0.00 0.00 0.00 74 1009.8
20260502234405 60 163 1.0 6.0 0.00 0.00 0.00 74 1010.0
20260502233345 60 151 1.0 4.0 0.00 0.00 0.00 73 1010.1
20260502225031 61 165 1.0 6.0 0.00 0.00 0.00 74 1010.6
20260502224046 62 148 1.0 7.0 0.00 0.00 0.00 72 1010.8
20260502223049 62 192 1.0 7.0 0.00 0.00 0.00 74 1010.9
20260502222028 61 188 1.0 7.0 0.00 0.00 0.00 73 1011.0
20260502221006 62 92 1.0 5.0 0.00 0.00 0.00 73 1011.2
20260502215953 61 115 1.0 7.0 0.00 0.00 0.00 74 1011.2
20260502215013 61 139 1.0 7.0 0.00 0.00 0.00 74 1011.4
20260502213944 61 196 2.0 8.0 0.00 0.00 0.00 73 1011.4
20260502212945 61 230 2.0 8.0 0.00 0.00 0.00 74 1011.4
20260502211947 62 82 1.0 8.0 0.00 0.00 0.00 75 1011.4
20260502210918 60 144 1.0 7.0 0.00 0.00 0.00 77 1011.5
20260502204755 59 172 1.0 6.0 0.00 0.00 0.00 79 1011.7
20260502202615 59 134 1.0 7.0 0.00 0.00 0.00 81 1011.9
20260502201610 58 169 1.0 7.0 0.00 0.00 0.00 81 1012.0
20260502200559 59 127 1.0 2.0 0.00 0.00 0.00 82 1012.1
20260502195538 58 207 1.0 6.0 0.00 0.00 0.00 82 1012.1
20260502194535 58 131 1.0 6.0 0.00 0.00 0.00 83 1012.0
20260502193512 57 167 0.0 8.0 0.00 0.00 0.00 85 1012.1
20260502192522 57 77 1.0 8.0 0.00 0.00 0.00 86 1012.2
20260502191448 56 148 1.0 4.0 0.00 0.00 0.00 86 1012.2
20260502190433 56 170 0.0 3.0 0.00 0.00 0.00 87 1012.3
20260502184239 56 176 0.0 9.0 0.00 0.00 0.00 87 1012.2
20260502183207 55 177 1.0 9.0 0.00 0.00 0.00 86 1012.2
20260502182151 55 202 1.0 6.0 0.00 0.00 0.00 87 1012.2
20260502181144 55 155 0.0 2.0 0.00 0.00 0.00 87 1012.2
20260502162639 55 178 0.0 3.0 0.00 0.00 0.00 89 1011.9
20260502160503 54 167 0.0 4.0 0.00 0.00 0.00 89 1011.7
20260502151417 54 208 0.0 4.0 0.00 0.00 0.00 89 1011.5
20260502150436 54 210 0.0 6.0 0.00 0.00 0.00 89 1011.4
20260502123727 53 151 1.0 6.0 0.00 0.00 0.00 89 1010.5
20260502122748 53 161 1.0 6.0 0.00 0.00 0.00 89 1010.5
20260502121747 53 207 1.0 4.0 0.00 0.00 0.00 89 1010.4
20260502115656 53 169 1.0 7.0 0.00 0.00 0.00 88 1010.5
20260502114651 53 119 1.0 6.0 0.00 0.00 0.00 89 1010.6
20260502113620 53 178 0.0 2.0 0.00 0.00 0.00 89 1010.6
20260502112635 53 182 0.0 3.0 0.00 0.00 0.00 89 1010.5
20260502111642 53 179 0.0 4.0 0.00 0.00 0.00 89 1010.6
20260502110639 53 131 1.0 3.0 0.00 0.00 0.00 89 1010.6
20260502105608 53 192 0.0 0.0 0.00 0.00 0.00 88 1010.6
20260502104628 53 166 0.0 2.0 0.00 0.00 0.00 89 1010.8
20260502103648 53 200 0.0 4.0 0.00 0.00 0.00 89 1010.8
20260502101511 53 175 1.0 4.0 0.00 0.00 0.00 89 1010.9
20260502100439 53 188 0.0 3.0 0.00 0.00 0.00 89 1010.9
20260502091410 54 78 0.0 4.0 0.00 0.00 0.00 89 1011.6
20260502090346 53 186 0.0 3.0 0.00 0.00 0.00 89 1011.5
20260502070854 54 191 0.0 8.0 0.00 0.00 0.00 88 1011.8
20260502065838 54 179 0.0 8.0 0.00 0.00 0.00 87 1011.9
20260502064809 54 194 0.0 3.0 0.00 0.00 0.00 87 1011.9
20260502063806 54 65 0.0 3.0 0.00 0.00 0.00 88 1011.8
20260502062821 54 107 0.0 3.0 0.00 0.00 0.00 87 1011.8
20260502061821 54 266 0.0 3.0 0.00 0.00 0.00 87 1011.8
20260502060806 54 182 0.0 3.0 0.00 0.00 0.00 87 1012.0
20260502055806 55 144 0.0 1.0 0.00 0.00 0.00 86 1012.1
20260502054824 55 186 0.0 2.0 0.00 0.00 0.00 87 1012.1
20260502053756 54 174 0.0 0.0 0.00 0.00 0.00 87 1012.1
20260502052752 54 150 0.0 3.0 0.00 0.00 0.00 87 1012.0
20260502051751 54 210 0.0 3.0 0.00 0.00 0.00 87 1012.0
20260502045610 55 167 0.0 2.0 0.00 0.00 0.00 86 1012.1
20260502044610 55 233 0.0 2.0 0.00 0.00 0.00 86 1012.0
20260502043613 55 123 0.0 4.0 0.00 0.00 0.00 86 1012.0
20260502042601 55 134 0.0 2.0 0.00 0.00 0.00 85 1011.8
20260502041538 55 159 0.0 4.0 0.00 0.00 0.00 85 1011.7
20260502040517 55 153 0.0 3.0 0.00 0.00 0.00 85 1011.6
20260502035523 55 188 0.0 4.0 0.00 0.00 0.00 85 1011.4
20260502034517 55 153 0.0 4.0 0.00 0.00 0.00 84 1011.2
20260502033451 56 184 0.0 5.0 0.00 0.00 0.00 83 1011.0
20260502032511 56 302 1.0 5.0 0.00 0.00 0.00 82 1011.0
20260502031520 57 196 0.0 0.0 0.00 0.00 0.00 81 1011.1
20260502030455 57 175 1.0 6.0 0.00 0.00 0.00 82 1010.9
20260502025443 57 194 1.0 6.0 0.00 0.00 0.00 81 1010.9
20260502023310 59 162 0.0 7.0 0.00 0.00 0.00 79 1010.9
20260502022244 59 189 1.0 7.0 0.00 0.00 0.00 79 1010.9